This is the latest recevied weather packets stored in our database for station/object K1KOF. If no packets are shown the sender has not sent any weather packets the latest 10 day(s).
| Time | Temp. | Humidity | Pressure | Rain* | Wind** | Luminosity | Snow |
|---|---|---|---|---|---|---|---|
| 1777551718 | 16.67° C | 99% | 1021.1 hPa | 0 mm | - | 29 W/m² | - |
| 1777551415 | 16.67° C | 99% | 1020.9 hPa | 0 mm | - | 24 W/m² | - |
| 1777551112 | 16.67° C | 99% | 1021 hPa | 0 mm | - | 17 W/m² | - |
| 1777550810 | 16.67° C | 99% | 1020.9 hPa | 0 mm | - | 24 W/m² | - |
| 1777550505 | 16.67° C | 99% | 1020.9 hPa | 0 mm | - | 23 W/m² | - |
| 1777550202 | 16.67° C | 99% | 1020.8 hPa | 0 mm | - | 22 W/m² | - |
| 1777549898 | 16.67° C | 99% | 1020.8 hPa | 0 mm | - | 10 W/m² | - |
| 1777549594 | 16.67° C | 99% | 1020.9 hPa | 0 mm | - | 7 W/m² | - |
| 1777549290 | 16.67° C | 99% | 1020.8 hPa | 0 mm | - | 6 W/m² | - |
| 1777548987 | 16.67° C | 99% | 1020.9 hPa | 0 mm | - | 7 W/m² | - |
| 1777548684 | 16.67° C | 99% | 1021 hPa | 0 mm | - | 5 W/m² | - |
| 1777548381 | 16.67° C | 99% | 1021.2 hPa | 0 mm | - | 2 W/m² | - |
| 1777548078 | 16.67° C | 99% | 1020.9 hPa | 0 mm | - | 0 W/m² | - |
| 1777547774 | 16.67° C | 99% | 1020.7 hPa | 0 mm | - | 0 W/m² | - |
| 1777547470 | 16.67° C | 99% | 1020.7 hPa | 0 mm | - | 0 W/m² | - |
| 1777547168 | 16.67° C | 99% | 1020.6 hPa | 0 mm | - | 0 W/m² | - |
| 1777546865 | 16.67° C | 99% | 1020.4 hPa | 0 mm | - | 0 W/m² | - |
| 1777546562 | 16.67° C | 99% | 1020.2 hPa | 0 mm | - | 0 W/m² | - |
| 1777546258 | 16.67° C | 99% | 1020.2 hPa | 0 mm | - | 0 W/m² | - |
| 1777545955 | 16.67° C | 99% | 1020.4 hPa | 0 mm | - | 0 W/m² | - |
| 1777545652 | 16.67° C | 99% | 1020.4 hPa | 0 mm | - | 0 W/m² | - |
| 1777545349 | 16.67° C | 99% | 1020 hPa | 0 mm | - | 0 W/m² | - |
| 1777545046 | 16.67° C | 99% | 1019.9 hPa | 0 mm | - | 0 W/m² | - |
| 1777544743 | 17.22° C | 99% | 1020.1 hPa | 0 mm | - | 0 W/m² | - |
| 1777544438 | 17.22° C | 99% | 1020.4 hPa | 0 mm | - | 0 W/m² | - |
* Rain latest hour (hover to see other rain measurements)
** Current wind speed in m/s (hover to see current wind gust speed)